Regional Weather Roundup
Issued by NWS Charleston, WV

Home | Current Version | Previous Version | Text Only | Print | Product List | Glossary Off
Versions: 1 2 3 4 5 6 7 8 9 10 11 12 13 14 15 16 17 18 19 20 21 22 23 24 25 26 27

000
ASUS41 KRLX 171110
RWRRLX
West Virginia Regional Weather Roundup
National Weather Service Charleston WV
600 AM EST SUN DEC 17 2017

Note: "fair" indicates few or no clouds below 12,000 feet with no
significant weather and/or obstructions to visibility.

WVZ003-171200-
Northern Panhandle of West Virginia

CITY           SKY/WX    TMP DP  RH WIND       PRES   REMARKS
WHEELING       PTCLDY    34  26  72 S7        30.18R
$$

WVZ009-171200-
Northwest West Virginia

CITY           SKY/WX    TMP DP  RH WIND       PRES   REMARKS
PARKERSBURG    MOCLDY    35  26  69 S5        30.25R
$$

WVZ006-171200-
Western West Virginia

CITY           SKY/WX    TMP DP  RH WIND       PRES   REMARKS
HUNTINGTON     CLOUDY    38  26  62 S3        30.22F
$$

WVZ015-171200-
West Central West Virginia

CITY           SKY/WX    TMP DP  RH WIND       PRES   REMARKS
CHARLESTON     PTCLDY    29  24  82 CALM      30.25R
$$

WVZ022-031-171200-
North Central West Virginia

CITY           SKY/WX    TMP DP  RH WIND       PRES   REMARKS
CLARKSBURG     PTCLDY    36  24  62 CALM      30.21S
MORGANTOWN     CLOUDY    36  25  64 S3        30.20S
$$

WVZ025-035-042-045-171200-
Southern West Virginia

CITY           SKY/WX    TMP DP  RH WIND       PRES   REMARKS
BECKLEY        CLOUDY    31  23  72 CALM      30.21F
LOGAN            N/A     36  27  69 CALM      30.22F
BLUEFIELD      CLOUDY    32  20  61 SW3       30.22S
LEWISBURG      CLOUDY    26  22  85 CALM      30.23S
$$

WVZ047-171200-
Northern Mountains of West Virginia

CITY           SKY/WX    TMP DP  RH WIND       PRES   REMARKS
ELKINS         PTCLDY    25  21  85 CALM      30.20F
$$

WVZ052-171200-
Eastern Panhandle of West Virginia

CITY           SKY/WX    TMP DP  RH WIND       PRES   REMARKS
MARTINSBURG    CLOUDY    27  23  85 SW6       30.21R
PETERSBURG     PTCLDY    26  22  85 CALM      30.21F
$$




USA.gov is the U.S. government's official web portal to all federal, state and local government web resources and services.